Location: Morlupo
(42.1333°N, 12.5000°E)
Time: 16:41:02
(UTC+00:00)

Lacrosse 5 rocket - Pass Details

Date: 18 September 2020
Orbit: 460 x 636 km, 57.0° (Epoch: 25 October)

Event Time Altitude Azimuth Distance (km) Brightness Sun altitude
Rises 18:07:14 0° 272° (W) 2,724 6.8 -10.7°
Reaches altitude 10° 18:09:57 10° 290° (WNW) 1,868 5.6 -11.2°
Maximum altitude 18:13:03 19° 337° (NNW) 1,406 3.8 -11.7°
Drops below altitude 10° 18:16:16 10° 24° (NNE) 1,948 4.0 -12.3°
Sets 18:19:10 0° 42° (NE) 2,883 4.7 -12.8°
